2024-247V (62396 NORAD) Tracking and Keplerian Element Data

This shows tracking and keplerian element data for the satellite.

Feedback or suggestion? Click here.




ElementValue
Catalog62396
Name2024-247V
Epoch Orbit685
Epoch Day34.55354249
Epoch Year2025
RAAN122.9805
Inclination44.995
Eccentricity0.0003524
Argument of Perigee257.7336
Mean Anonmoly102.315
Mean Motion15.2137247
Decay Rate0.00022995
L11 62396U 24247V 25034.55354249 .00022995 00000+0 10165-2 0 9997
L22 62396 44.9950 122.9805 0003524 257.7336 102.3150 15.21372470 6856



Live tracking and technical data element details for 2024-247V (NORAD 62396). 2024-247V can be tracked NOW for your location showing map with azimuth and elevation plus other details from your city location.







IsCatalogInMostPopularTable: catalog: 62396, numindb: 10
Update: records affected: 1



GetName: 62396 2024-247V

Hit Count: updated at: Mon, 19 May 2025 03:12:18 GMT